#timestamp,LO_Frequency,Hit,StdDev 
1562511615.7,286047001.6,N
1562511635.5,286047001.9,N
1562511655.4,286047001.5,N
1562511675.2,286047002.8,N
1562511695.0,286047001.5,N
1562511695.9,286047001.5,N
1562511715.8,286047002.8,N
1562511735.6,286047001.5,N
1562511755.5,286047002.3,N
1562511775.3,286047002.5,N
1562511795.1,286047002.6,N
1562511815.8,286047001.7,N
1562511835.6,286047002.2,N
1562511855.5,286047002.4,N
1562511875.3,286046999.9,N
1562511895.1,286047002.7,N
1562511915.9,286047002.2,N
1562511935.7,286046999.9,N
1562511955.6,286046999.9,N
1562511975.4,286047000.2,N
1562511995.2,286046999.7,N
1562512015.1,286047002.0,N
1562512016.0,286047002.0,N
1562512035.8,286047002.0,N
1562512055.7,286047002.4,N
1562512075.5,286047002.6,N
1562512095.3,286047002.1,N
1562512115.2,286047003.4,Y
1562512135.0,286047002.6,P
1562512135.9,286047002.6,P
1562512155.8,286047002.0,P
1562512175.6,286047001.7,Y
1562512195.4,286047001.6,P
1562512215.3,286047001.9,P
1562512235.1,286046999.5,N
1562512255.9,286046998.9,N
1562512275.7,286046997.2,N
1562512295.5,286046997.9,N
1562512315.4,286046997.7,N
1562512335.2,286046998.0,N
1562512355.0,286046995.4,N
1562512355.9,286046995.4,N
1562512375.8,286046995.5,N
1562512395.6,286046995.0,N
1562512415.5,286046995.0,N
1562512435.3,286046995.6,N
1562512455.1,286046995.0,N
1562512475.9,286046995.2,N
1562512495.7,286046994.9,N
1562512515.6,286046995.0,N
1562512535.4,286046997.4,N
1562512555.2,286046999.5,N
1562512575.1,286046997.3,N
1562512576.0,286046997.3,N
1562512595.8,286046997.1,N
1562512615.6,286046999.2,N
1562512635.5,286046996.6,N
1562512655.3,286046999.3,N
1562512675.2,286046999.1,N
1562512695.9,286046999.4,N
1562512715.7,286047000.9,N
1562512735.6,286047000.1,N
1562512755.4,286047000.2,N
1562512775.3,286047000.7,N
1562512795.1,286046998.2,N
1562512796.0,286046998.2,N
1562512815.8,286046998.3,N
1562512835.7,286046998.7,N
1562512855.5,286047000.2,N
1562512875.3,286047000.0,N
1562512895.2,286047000.6,N
1562512915.0,286046998.8,N
1562512915.9,286046998.8,N
1562512935.8,286046998.1,N
1562512955.6,286047000.0,N
1562512975.4,286047000.0,N
1562512995.3,286047002.1,N
1562513015.1,286047001.5,N
1562513035.9,286047001.8,N
1562513055.7,286047000.0,N
1562513075.5,286046998.1,N
1562513095.4,286046998.5,N
1562513115.2,286047000.8,N
1562513135.0,286047001.8,N
1562513135.9,286047001.8,N
1562513155.8,286047002.6,N
1562513175.6,286047000.4,N
1562513195.5,286046999.9,N
1562513215.3,286046998.5,N
1562513235.1,286047000.3,N
1562513255.9,286047002.8,N
1562513275.7,286047002.5,N
1562513295.6,286046999.8,N
1562513315.4,286047000.0,N
1562513335.2,286046998.5,N
1562513355.1,286046996.5,N
1562513356.0,286046996.5,N
1562513375.8,286046999.6,N
1562513395.7,286046996.7,N
1562513415.5,286046998.9,N
1562513435.3,286046999.2,N
1562513455.2,286047000.5,N
1562513475.0,286047001.2,N
1562513475.9,286047001.2,N
1562513495.7,286046999.5,N
1562513515.6,286046996.9,N
1562513535.4,286046999.6,N
1562513555.3,286046997.5,N
1562513575.1,286046996.6,N
1562513576.0,286046996.6,N
1562513595.8,286046997.1,N
1562513615.7,286046996.9,N
1562513635.5,286046999.4,N
1562513655.4,286047001.0,N
1562513675.2,286046997.2,N
1562513695.0,286046995.5,N
1562513695.9,286046995.5,N
1562513715.8,286046994.9,N
1562513735.6,286046995.5,N
1562513755.5,286046997.6,N
1562513775.3,286046997.8,N
1562513795.1,286046997.8,N
1562513815.9,286046995.2,N
1562513835.7,286046997.6,N
1562513855.6,286046996.8,N
1562513875.4,286046996.7,N
1562513895.2,286046997.4,N
1562513915.1,286046996.8,N
1562513916.0,286046996.8,N
1562513935.8,286046997.0,N
1562513955.6,286046999.6,N
1562513975.5,286046999.3,N
1562513995.3,286046998.9,N
1562514015.2,286046996.5,N
1562514035.9,286046999.6,N
1562514055.7,286046996.6,N
1562514075.6,286046999.5,N
1562514095.4,286046996.9,N
1562514115.3,286046996.9,N
1562514135.1,286046997.4,N
1562514136.0,286046997.4,N
1562514155.8,286046997.4,N
1562514175.7,286046997.9,N
1562514195.5,286046998.0,N
1562514215.4,286046995.3,Y
1562514235.2,286046996.9,P
1562514255.0,286046997.2,P
1562514255.9,286046997.2,P
1562514275.8,286046997.4,Y
1562514295.6,286046999.8,P
1562514315.4,286047000.6,N
1562514335.3,286047000.7,N
1562514355.1,286046998.4,N
1562514375.9,286046998.3,N
1562514395.7,286046998.7,N
1562514415.5,286046999.0,N
1562514435.4,286046999.5,N
1562514455.2,286046997.4,N
1562514475.1,286046996.5,Y
1562514476.0,286046996.5,P
1562514495.8,286046998.2,N
1562514515.6,286046998.6,N
1562514535.5,286046999.3,N
1562514555.3,286046999.5,N
1562514575.2,286046998.4,N
1562514595.9,286046998.3,N
1562514615.7,286047000.0,N
1562514635.6,286046998.6,N
1562514655.4,286046998.5,N
1562514675.2,286046996.5,Y
1562514695.1,286047000.6,P
1562514696.0,286047000.6,N
1562514715.8,286047000.8,N
1562514735.7,286047002.3,N
1562514755.5,286047001.1,N
1562514775.3,286046998.9,N
1562514795.2,286046997.3,N
1562514815.0,286046999.4,N
1562514815.9,286046999.4,N
1562514835.8,286046997.0,N
1562514855.6,286046999.0,N
1562514875.4,286046998.9,N
1562514895.3,286047000.8,N
1562514915.1,286046999.7,N
1562514935.9,286047002.3,N
1562514955.7,286047002.8,N
1562514975.5,286047002.0,N
1562514995.4,286047004.2,N
1562515015.2,286047002.9,N
1562515035.0,286047004.2,N
1562515035.9,286047004.2,N
1562515055.8,286047001.7,N
1562515075.6,286047001.7,N
1562515095.5,286047003.4,N
1562515115.3,286047005.9,N
1562515135.1,286047005.7,N
1562515155.9,286047001.3,N
1562515175.7,286047002.4,N
1562515195.6,286047001.5,N
